User: anonymous   Login
Location: Brahman Valley
(40.6513°N, 111.8855°W)
Time: 21:40:04
(UTC+00:00)
Language:

M-CUBED/EXP-1 PRIME - Orbit

View from above orbital plane
View from above orbital plane
View from above satellite
View from above satellite

Ground track
Ground track

The orbit data is extracted from the following two-line orbital elements,

1 37855U 11061F   21175.52398404  .00002998  00000-0  14981-3 0  9992
2 37855 101.7128 102.5871 0166983  49.6876 311.8792 15.07723912527717
Epoch (UTC): 24 June 2021 12:34:32
Eccentricity: 0.0166983
inclination: 101.7128°
perigee height: 427 km
apogee height: 659 km
right ascension of ascending node: 102.5871°
argument of perigee: 49.6876°
revolutions per day: 15.07723912
mean anomaly at epoch: 311.8792°
orbit number at epoch: 52771

The dashed part of the orbit path shows where the satellite is in the earth's shadow,  

DLR